STARLINK-11185, 62588

Orbit data source: Space-Track

STARLINK-11185, 62588 is a payload satellite owned by SpaceX/Seattle (US) in LEO that was launched on Mon, 13 Jan 2025 UTC via an FALCON 9 launch vehicle from the Air Force Eastern Test Range (AFETR). Payload-class satellites include a variety of spacecraft equipped with specific instruments for various scientific and technological missions. These include communications satellites like Starlink; space stations such as the ISS; scientific satellites like the Hubble; Earth observation satellites from companies like Planet Labs, Umbra, and HawkEye 360; GPS; miniature CubeSats for education and research; and military/defense satellites.

Loading next visibility...
Identifier
62588, 2025-008B
Orbit
LEO
Country
Flag of USUS
Related business
Manufacturer
SpaceX/Seattle
Mission
Operational Commercial Communications
Bus & Motor
STARLINK V2MD, Unknown motor
Mass
960 kg wet, ~910 kg dry
Launch date (UTC)
2025-01-13 (1 year ago)
Launch vehicle
FALCON 9
Launch site
Air Force Eastern Test Range (AFETR)
Object type
Payload
Rocket body
Debris
Shape & HBR
Box + 2 Pan, 18.1 m
Radar Cross Section
36.964 m², Large (>1 m²)

Expand to show TLE details & history
Last TLE update: 8 hours ago

TLE from 8 hours ago
0 STARLINK-11185
1 62588U 25008B   26125.25002315 -.00128748  00000-0 -10127-2 0  9993
2 62588  43.0002 145.0005 0001438 271.9782  43.2932 15.70903286  5983
Epoch: 2026-05-05T06:00Z
TLE epoch observation values (Epoch: 2026-05-05T06:00:02.000Z)
Latitude
-28.85361°
Longitude
155.88282°
Altitude
363.169 km
Speed
7.692 km/s
True Right ascension
07h 16m 04s
True Declination
-28° 41' 60"
Sunlit
Object was in daylight at epoch
Visualization orbit readout
Latitude
Unknown
Longitude
Unknown
Altitude
Unknown
Speed
Unknown
Apparent Right ascension
Unknown
Apparent Declination
Unknown
Sunlit
N/A
Visualization observer readout
Local Sidereal Time
21:48:21
Azimuth
Unknown
Elevation
Unknown
Doppler factor
Unknown
Orbital elements
Apogee altitude
359.264 km
Perigee altitude
357.327 km
Semi-major axis
6,736.433 km
Eccentricity
0.00014
Inclination
43.0002°
RAAN
145.0005°
Arg. of periapsis
271.9782°
True anomaly
43.3045°
Mean anomaly
43.2932°
Eccentric anomaly
43.29885°
Mean motion
3.92553 °/min
Orbital period
91.71 mins
BSTAR
-0.0010127
Loading maneuver chart data...
Computing Atmospheric mass density...
Loading historical data...
Loading historical data...
Loading historical data...
Loading historical data...
Loading historical data...
Loading historical data...
Loading historical data...

Documentation

Showing up to 5 results
|